Погода в Термезе

Погода в Термезе : погода сейчас, прогноз погоды и архив. Всё, что Вы хотите узнать о погоде в Термезе!

Поиск расширенной информации на нашем сайте:

Другие новости

Новости СМИ2

Главная страница сайта

Новости сайта

02.10.2013

Напоминаем, что на нашем новом сайте вы можете получить высокодетализированные прогнозы погоды по пунктам России, СНГ и мира (включающие важные для авиации метеовеличины, такие как направление и скорость ветра, видимость, явления погоды, количество и форма облачности, нижняя и верхняя граница облачности), а также ознакомиться с разнообразными материалами по авиационной метеорологии и подборкой полезных ссылок на эту тему.

Сайт Метеоцентр.Азия посвящён разработке технологий оптимизации авиаметеорологического обслуживания, включая проектирование и перспективное создание нескольких автоматизированных авиаметеорологических систем:
- система выпуска высокодетальных прогностических карт явлений погоды для нижнего воздушного пространства по России и ближнему зарубежью;
- система верификации прогнозов TAF (выпускаемых синоптиками официальных АМСГ РФ и ближнего зарубежья) и AUTOTAF (выпускаемых сайтом Метеоцентр.Азия) - выявление ошибок, онлайн-сопоставление с фактической погодой METAR, автоматическое внесение коррективов в прогнозы при резком отклонении фактической погоды от прогноза, подсчёт оправдываемости прогнозов по элементам и в целом;
- система обработки, анализа и отображения авиаметеорологической информации для применения провайдерами метеорологической информации.

Рекомендуем: Общие сведения о котлах Buderus

Погода в Термезе - сегодня

Время (UTC), дата Ветер
(°,м/с) 
Видим.   Явления Облачность Т
(°С)
Тd
(°С)
f(%) Тe
(°С)
Pmin
(гПа)
dP
(гПа)
Po
(мм)
O2
(г/м3)
Тmin Tmax R s Состояние
почвы
12 23.02.17 050 (СВ) 10 км    ясно 
+15.5 -1.4 31 +16  1021  -0.4  738  282           
15 23.02.17 050 (СВ) 10 км    3/0 средняя 
[Ac trans]
+8.3 +2.1 65 +8  1022.4  0.4  739  288    +16.7       
18 23.02.17 030 (СВ) 10 км    ясно 
+5.8 -1.2 61 +6  1023.2  0.4  739  292    +16.7       
21 23.02.17 060 (СВ) 10 км    ясно 
+4.5 +0 73 +4  1022.9  -0.4  739  293           
00 24.02.17 030 (СВ) 10 км    ясно 
+4.4 -1.7 65 +3  1021.6  -1.2  738  293           
03 24.02.17 030 (СВ) 10 км    8/0 средняя 
[Ac und]
+4.9 -1.7 62 +3  1021  -0.6  737  292           
06 24.02.17 040 (СВ) 10 км    9/0 средняя, верхняя 
[Ac trans|Ci fib]
+14.2 -0.9 35 +14  1019.8  0.1  737  282  +2.9         
09 24.02.17 080 (В) 10 км    9/0 средняя, верхняя 
[Ac trans|Ci fib]
+19 -3.8 21 +20  1017.2  -1.9  736  278           
12 24.02.17 170 (Ю) 6000 м  мгла  9/0 средняя 
[Ac und]
+16.8 -2.5 27 +17  1018.2  0.6  736  280           
15 24.02.17 250 (З) 10 км    9/0 средняя 
[Ac und]
+11.4 +4 60 +11  1022.2  3.2  739  285    +19.9       
18 24.02.17 140 (ЮВ) 5000 м  мгла  8/8 2000 м кучево-дожд., средняя 
[Cb cap|Ac und]
+11 +3.8 61 +11  1024  1.8  740  286    +19.9       
21 24.02.17 110 (В) 6000 м  дымка  8/8 2000 м кучево-дожд., средняя 
[Cb cap|Ac und]
+6.5 +3.7 82 +7  1026.2  1.4  741  291           
00 25.02.17 090 (В) 10 км    4/0 средняя 
[Ac trans]
+6.3 +4.2 86 +5  1026.5  0.3  741  291           
03 25.02.17 050 (СВ) 10 км    5/0 средняя 
[Ac trans]
+5.4 +3.5 88 +5  1028.6  1.9  743  293           
06 25.02.17 030 (СВ) 9000 м  мгла  5/0 средняя 
[Ac trans]
+13.8 +5.6 58 +15  1029.1  1.6  744  284  +5.4         
09 25.02.17 080 (В) 10 км    4/4 1500 м 
[Cu hum]
+18.1 +5.1 42 +19  1026.8  -1.7  743  280           
12 25.02.17 040 (СВ) 10 км    4/4 1500 м 
[Cu med, cong]
+18.1 +4.8 41 +19  1025.7  -1  742  280           
15 25.02.17 060 (СВ) 10 км    ясно 
+12.8 +6.1 64 +13  1026.8  0.4  742  285    +19.6       
18 25.02.17 030 (СВ) 10 км    ясно 
+9.6 +6.1 79 +9  1027.1  -0.1  742  288    +19.6       
21 25.02.17 030 (СВ) 10 км    ясно 
+8.1 +4.5 78 +7  1026.5  -0.8  742  289           
00 26.02.17 020 (С) 10 км    ясно 
+5.8 +2.9 82 +4  1025.3  -1.4  740  292           
03 26.02.17 040 (СВ) 10 км    ясно 
+5.9 +3 82 +5  1025.3  740  292           
06 26.02.17 040 (СВ) 10 км    ясно 
+15.7 +4.1 46 +15  1023.1  -0.9  740  281  +4.6         
09 26.02.17 060 (СВ) 10 км    3/0 верхняя 
[Ci fib]
+19.6 +0.2 27 +20  1019.1  -3.5  737  277           
12 26.02.17 050 (СВ) 10 км    3/0 верхняя 
[Ci fib]
+19.5 +0.6 28 +20  1017.1  -1.9  736  277           
Время (UTC), дата Ветер
(°,м/с) 
Видим.   Явления Облачность Т
(°С)
Тd
(°С)
f(%) Тe
(°С)
Pmin
(гПа)
dP
(гПа)
Po
(мм)
O2
(г/м3)
Тmin Tmax R s Состояние
почвы

Для получения пояснительной информации подведите курсор к названию столбца.

ПОГОДА в Термезе - архив

Всё, что Вы хотите узнать о погоде в Термезе - удобно и подробно!

Выберите нужную дату (начиная с 1 января 2015* года) и нажмите кнопку "Найти".
Будут отображены архивные сводки погоды по пункту Термез, начиная с указанной даты.


Отображать данные в формате CSV (для использования в таблицах Excel)


Внимание! Наш архив погоды предназначен исключительно для личного некоммерческого использования в познавательных целях. Если Вам необходимы официальные справки о состоянии погоды (для производственных, юридических, коммерческих и т.п. целей), обращайтесь в органы Росгидромета.

*Примечание: данная дата относится к архиву по метеостанциям СССР (Россия, СНГ, Балтия).
Архив по метеостанциям Зарубежной Европы и Азии (кроме Китая) хранится 10 дней, по другим регионам земного шара (Китай, Африка, Америка, Австралия, Океания) - 1 день.

Термез - район местоположения метеостанции


Название, широта, долгота, высота метеостанции:
Термез 37.2°ш. 67.3°д. 310 м над ур. моря [Узбекистан]

Дополнительная информация

В oтличие oт бoльшинства пoгoдных сайтoв мы публикуем пoдрoбную метеoинфoрмацию в детальнoм прoфессиoнальнoм фoрмате.

Характеристики температуры и влажнoсти вoздуха измеряются на высoте 2 м в тени вдали oт зданий и деревьев.
Скoрoсть ветра измеряется на высoте 10 м (на урoвне рoста челoвека скoрoсть ветра ниже в 1.5-2 раза). Если метеoстанция нахoдится в гoрoде или в лесу, тo скoрoсть ветра занижена на 2-4 м/с пo сравнению с oткрытым местoм. Скoрoсть ветра над акватoриями крупных рек и oзёр, а также на вершинах хoлмoв на 2-5 м/с выше, чем в oбычных услoвиях.
Атмoсфернoе давление в разных тoчках местнoсти мoжет значительнo oтличаться oт давления на метеoстанции, в зависимoсти oт услoвий рельефа (при пoдъёме на 10 м давление пoнижается примернo на 1 мм рт.ст.).